Telluride, CO

1:58 PM MDT on June 23, 2017 (GMT -0600)
Telluride Regional

Weather History for KTEX - March, 2014

Change the Weather History Date:

Tuesday, March 11, 2014

  Actual Average Record
Temperature  
Mean Temperature 32 °F -  
Max Temperature 44 °F 37 °F 57 °F (2016)
Min Temperature 21 °F 17 °F 14 °F (2006)
Degree Days  
Heating Degree Days 32    
Moisture  
Dew Point 14 °F    
Average Humidity 58    
Maximum Humidity 100    
Minimum Humidity 23    
Precipitation  
Precipitation 0.00 in - - ()
Sea Level Pressure  
Sea Level Pressure 30.03 in    
Wind  
Wind Speed 9 mph (West)    
Max Wind Speed 20 mph    
Max Gust Speed 32 mph    
Visibility 9 miles    
Events Snow    
Averages and records for this station are not official NWS values.
T = Trace of Precipitation, MM = Missing Value Source: NWS Daily Summary

Daily Weather History Graph

Daily Weather History Graph

Search for Another Location

Airport or City:

Trip Planner

Search our weather history database for the weather conditions in past years. The results will help you decide how hot, cold, wet, or windy it might be!

Date:

Astronomy

Mar. 11, 2014 Rise Set
Actual Time 7:28 AM MDT 7:15 PM MDT
Civil Twilight 7:02 AM MDT 7:41 PM MDT
Nautical Twilight 6:32 AM MDT 8:11 PM MDT
Astronomical Twilight 6:01 AM MDT 8:42 PM MDT
Moon 2:57 PM MDT (3/11) 4:20 AM MDT (3/11)
Length of Visible Light 12h 38m
Length of Day
11h 46m
Waxing Gibbous, 78% of the Moon is Illuminated
Mar 11
Waxing Gibbous
Mar 16
Full
Mar 23
Last Quarter
Mar 30
New
Apr 7
First Quarter

Hourly Weather History & Observations

Time (MDT) Temp. Windchill Dew Point Humidity Pressure Visibility Wind Dir Wind Speed Gust Speed Precip Events Conditions
12:18 AM 44.6 °F 38.1 °F 8.6 °F 23% 29.95 in 10.0 mi SSW 13.8 mph 31.1 mph N/A   Mostly Cloudy
12:38 AM 44.6 °F 36.6 °F 8.6 °F 23% 29.94 in 10.0 mi SSW 19.6 mph 27.6 mph N/A   Scattered Clouds
12:57 AM 42.8 °F 35.8 °F 6.8 °F 23% 29.96 in 10.0 mi SW 13.8 mph 25.3 mph N/A   Scattered Clouds
1:38 AM 41.0 °F 35.8 °F 8.6 °F 26% 29.96 in 10.0 mi SW 8.1 mph 21.9 mph N/A   Mostly Cloudy
1:57 AM 41.0 °F 36.4 °F 8.6 °F 26% 29.95 in 10.0 mi SW 6.9 mph 26.5 mph N/A   Scattered Clouds
2:18 AM 39.2 °F 33.0 °F 8.6 °F 28% 29.95 in 10.0 mi SW 9.2 mph 25.3 mph N/A   Clear
2:38 AM 39.2 °F 32.0 °F 8.6 °F 28% 29.95 in 10.0 mi SW 11.5 mph 21.9 mph N/A   Clear
2:58 AM 37.4 °F 29.3 °F 8.6 °F 30% 29.94 in 10.0 mi WSW 12.7 mph 19.6 mph N/A   Scattered Clouds
3:18 AM 37.4 °F 29.8 °F 8.6 °F 30% 29.93 in 10.0 mi SW 11.5 mph 19.6 mph N/A   Mostly Cloudy
3:40 AM 37.4 °F 32.8 °F 8.6 °F 30% 29.93 in 10.0 mi WSW 5.8 mph 17.3 mph N/A   Mostly Cloudy
3:58 AM 37.4 °F 29.3 °F 8.6 °F 30% 29.92 in 10.0 mi SW 12.7 mph 25.3 mph N/A   Mostly Cloudy
4:38 AM 33.8 °F 23.9 °F 17.6 °F 52% 29.93 in 10.0 mi West 15.0 mph 26.5 mph N/A   Mostly Cloudy
4:58 AM 30.2 °F 19.3 °F 21.2 °F 69% 29.95 in 10.0 mi West 15.0 mph 32.2 mph N/A   Overcast
5:18 AM 30.2 °F 18.1 °F 21.2 °F 69% 29.95 in 10.0 mi West 18.4 mph 24.2 mph N/A   Overcast
5:58 AM 30.2 °F 24.3 °F 19.4 °F 64% 29.95 in 10.0 mi West 5.8 mph - N/A   Overcast
6:18 AM 28.4 °F 19.1 °F 19.4 °F 69% 29.95 in 10.0 mi West 10.4 mph - N/A   Overcast
6:38 AM 28.4 °F 19.1 °F 19.4 °F 69% 29.97 in 7.0 mi West 10.4 mph 16.1 mph N/A Snow Light Snow
6:58 AM 26.6 °F 16.8 °F 21.2 °F 80% 29.97 in 2.0 mi West 10.4 mph 16.1 mph N/A Snow Light Snow
7:18 AM 26.6 °F 18.2 °F 21.2 °F 80% 29.97 in 2.5 mi West 8.1 mph - N/A Snow Light Snow
7:38 AM 24.8 °F 20.5 °F 21.2 °F 86% 29.97 in 10.0 mi WSW 3.5 mph - N/A Snow Light Snow
8:18 AM 26.6 °F 19.1 °F 19.4 °F 74% 29.97 in 10.0 mi West 6.9 mph - N/A   Mostly Cloudy
8:37 AM 26.6 °F 17.5 °F 14.0 °F 59% 29.97 in 10.0 mi West 9.2 mph - N/A   Scattered Clouds
8:59 AM 26.6 °F 19.1 °F 12.2 °F 55% 29.97 in 10.0 mi West 6.9 mph - N/A   Scattered Clouds
9:19 AM 26.6 °F 18.2 °F 10.4 °F 51% 29.97 in 10.0 mi WSW 8.1 mph - N/A   Scattered Clouds
9:37 AM 26.6 °F 18.2 °F 12.2 °F 55% 29.97 in 10.0 mi SW 8.1 mph - N/A   Clear
9:58 AM 28.4 °F 19.7 °F 8.6 °F 43% 29.98 in 10.0 mi West 9.2 mph - N/A   Clear
10:19 AM 28.4 °F 17.0 °F 10.4 °F 47% 29.99 in 10.0 mi West 15.0 mph 21.9 mph N/A   Scattered Clouds
10:38 AM 26.6 °F 15.2 °F 8.6 °F 47% 30.00 in 10.0 mi WNW 13.8 mph 21.9 mph N/A   Scattered Clouds
10:59 AM 28.4 °F 17.5 °F 8.6 °F 43% 30.00 in 10.0 mi West 13.8 mph 18.4 mph N/A   Mostly Cloudy
11:18 AM 28.4 °F 19.7 °F 8.6 °F 43% 30.01 in 10.0 mi WNW 9.2 mph 18.4 mph N/A   Mostly Cloudy
11:37 AM 28.4 °F 20.4 °F 6.8 °F 40% 30.01 in 10.0 mi WNW 8.1 mph - N/A   Overcast
11:57 AM 28.4 °F 19.7 °F 8.6 °F 43% 30.02 in 10.0 mi WNW 9.2 mph - N/A   Overcast
12:19 PM 30.2 °F - 8.6 °F 40% 30.02 in 10.0 mi Calm Calm - N/A   Mostly Cloudy
12:37 PM 28.4 °F 24.6 °F 6.8 °F 40% 30.02 in 10.0 mi North 3.5 mph - N/A   Mostly Cloudy
12:57 PM 30.2 °F 26.7 °F 6.8 °F 37% 30.02 in 10.0 mi North 3.5 mph - N/A   Overcast
1:17 PM 28.4 °F 18.5 °F 12.2 °F 51% 30.03 in 7.0 mi West 11.5 mph 17.3 mph N/A   Overcast
1:37 PM 28.4 °F 18.0 °F 12.2 °F 51% 30.03 in 10.0 mi West 12.7 mph 17.3 mph N/A   Overcast
1:57 PM 30.2 °F - 5.0 °F 34% 30.03 in 10.0 mi Calm Calm - N/A   Mostly Cloudy
2:17 PM 30.2 °F - 1.4 °F 29% 30.03 in 10.0 mi Calm Calm - N/A   Scattered Clouds
2:37 PM 32.0 °F - -0.4 °F 25% 30.02 in 10.0 mi Calm Calm - N/A   Scattered Clouds
3:17 PM 30.2 °F 26.7 °F 3.2 °F 32% 30.02 in 10.0 mi North 3.5 mph - N/A   Overcast
3:37 PM 30.2 °F 26.7 °F 10.4 °F 44% 30.03 in 10.0 mi North 3.5 mph - N/A   Overcast
4:38 PM 28.4 °F 24.6 °F 15.8 °F 59% 30.06 in 10.0 mi North 3.5 mph - N/A   Overcast
4:57 PM 28.4 °F - 15.8 °F 59% 30.06 in 10.0 mi Calm Calm - N/A   Mostly Cloudy
5:18 PM 28.4 °F 23.3 °F 17.6 °F 64% 30.07 in 3.0 mi NNE 4.6 mph - N/A Snow Snow
5:37 PM 26.6 °F 22.6 °F 19.4 °F 74% 30.07 in 4.0 mi NNE 3.5 mph - N/A Snow Light Snow
5:57 PM 26.6 °F - 17.6 °F 69% 30.08 in 10.0 mi Calm Calm - N/A   Overcast
6:18 PM 28.4 °F - 14.0 °F 55% 30.08 in 10.0 mi Calm Calm - N/A   Overcast
6:59 PM 26.6 °F 21.2 °F 19.4 °F 74% 30.10 in 10.0 mi NE 4.6 mph - N/A   Overcast
7:19 PM 24.8 °F 20.5 °F 19.4 °F 80% 30.11 in 5.0 mi East 3.5 mph - N/A Snow Light Snow
7:37 PM 24.8 °F 16.9 °F 21.2 °F 86% 30.12 in 10.0 mi ESE 6.9 mph - N/A   Overcast
8:17 PM 24.8 °F - 21.2 °F 86% 30.13 in 4.0 mi Calm Calm - N/A Snow Light Snow
8:37 PM 24.8 °F - 21.2 °F 86% 30.14 in 0.8 mi Calm Calm - N/A Snow Snow
9:00 PM 23.0 °F 14.7 °F 23.0 °F 100% 30.14 in 2.5 mi WSW 6.9 mph - N/A Snow Light Snow
9:17 PM 23.0 °F 18.4 °F 21.2 °F 93% 30.14 in 7.0 mi SW 3.5 mph - N/A Snow Light Snow
9:39 PM 23.0 °F - 21.2 °F 93% 30.14 in 10.0 mi Calm Calm - N/A Snow Light Snow
9:57 PM 24.8 °F 20.5 °F 23.0 °F 93% 30.16 in 2.5 mi SE 3.5 mph - N/A Snow Light Snow
10:17 PM 23.0 °F - 21.2 °F 93% 30.16 in 4.0 mi Calm Calm - N/A Snow Light Snow
10:37 PM 23.0 °F - 21.2 °F 93% 30.16 in 7.0 mi Calm Calm - N/A Snow Light Snow
10:57 PM 21.2 °F - 19.4 °F 93% 30.16 in 10.0 mi Calm Calm - N/A   Mostly Cloudy
11:18 PM 21.2 °F - 21.2 °F 100% 30.16 in 10.0 mi Calm Calm - N/A   Mostly Cloudy
11:37 PM 21.2 °F - 19.4 °F 93% 30.16 in 10.0 mi Calm Calm - N/A   Scattered Clouds
11:57 PM 21.2 °F - 19.4 °F 93% 30.17 in 10.0 mi Calm Calm - N/A   Clear